GW0655 Weather Reports


time (UTC)temp
C
wind
direction
speed
KPH
gust
KPH
rain 1hr
cm
rain 24hr
cm
rain mn
cm
humidity
%
barometer
mb
20260508234056 26 152 4.8 8.0 0.00 0.00 0.00 75 1010.3
20260508233555 26 196 1.6 1.6 0.00 0.00 0.00 76 1010.3
20260508233052 26 230 4.8 8.0 0.00 0.00 0.00 74 1010.3
20260508232549 26 145 1.6 3.2 0.00 0.00 0.00 74 1010.0
20260508232046 27 236 3.2 3.2 0.00 0.00 0.00 73 1010.0
20260508231544 27 67 4.8 4.8 0.00 0.00 0.00 73 1010.0
20260508231041 27 213 3.2 3.2 0.00 0.00 0.00 72 1010.0
20260508230537 27 197 3.2 4.8 0.00 0.00 0.00 72 1010.3
20260508230034 26 250 3.2 3.2 0.00 0.00 0.00 72 1010.3
20260508225531 27 263 0.0 1.6 0.00 0.00 0.00 73 1010.3
20260508225028 27 205 3.2 3.2 0.00 0.00 0.00 72 1010.0
20260508224526 27 172 4.8 4.8 0.00 0.00 0.00 71 1010.0
20260508224023 27 206 3.2 4.8 0.00 0.00 0.00 71 1010.3
20260508223521 27 76 3.2 4.8 0.00 0.00 0.00 72 1010.0
20260508223018 27 250 3.2 3.2 0.00 0.00 0.00 71 1010.3
20260508222515 27 263 1.6 3.2 0.00 0.00 0.00 70 1010.0
20260508222012 27 244 3.2 3.2 0.00 0.00 0.00 70 1010.0
20260508221508 27 115 3.2 3.2 0.00 0.00 0.00 69 1010.3
20260508221004 27 172 4.8 9.7 0.00 0.00 0.00 69 1010.3
20260508220501 27 182 4.8 4.8 0.00 0.00 0.00 70 1010.3
20260508215956 27 149 4.8 4.8 0.00 0.00 0.00 69 1010.3
20260508215454 27 150 1.6 4.8 0.00 0.00 0.00 69 1010.7
20260508214950 27 160 3.2 3.2 0.00 0.00 0.00 69 1010.3
20260508214448 28 157 3.2 3.2 0.00 0.00 0.00 68 1010.7
20260508213944 27 191 0.0 1.6 0.00 0.00 0.00 70 1010.7
20260508213442 27 172 3.2 4.8 0.00 0.00 0.00 70 1010.3
20260508212937 26 176 1.6 1.6 0.00 0.00 0.00 72 1010.3
20260508212434 27 238 1.6 1.6 0.00 0.00 0.00 70 1010.7
20260508211930 27 219 0.0 1.6 0.00 0.00 0.00 71 1010.7
20260508211425 27 285 1.6 1.6 0.00 0.00 0.00 70 1010.7
20260508210923 27 151 4.8 8.0 0.00 0.00 0.00 70 1011.0
20260508210420 27 41 1.6 1.6 0.00 0.00 0.00 70 1011.0
20260508205916 26 213 1.6 1.6 0.00 0.00 0.00 72 1011.0
20260508205413 26 184 1.6 1.6 0.00 0.00 0.00 72 1011.3
20260508204909 27 183 4.8 4.8 0.00 0.00 0.00 71 1011.3
20260508204407 27 341 0.0 1.6 0.00 0.00 0.00 71 1011.3
20260508203902 27 76 1.6 3.2 0.00 0.00 0.00 69 1011.0
20260508203358 27 209 4.8 8.0 0.00 0.00 0.00 68 1011.3
20260508202854 27 216 3.2 4.8 0.00 0.00 0.00 69 1011.7
20260508202351 27 165 1.6 3.2 0.00 0.00 0.00 70 1011.3
20260508201849 26 118 4.8 4.8 0.00 0.00 0.00 71 1011.3
20260508201345 27 86 0.0 0.0 0.00 0.00 0.00 70 1011.7
20260508200842 26 241 3.2 3.2 0.00 0.00 0.00 69 1012.0
20260508200339 26 261 0.0 1.6 0.00 0.00 0.00 70 1011.7
20260508195834 26 126 4.8 4.8 0.00 0.00 0.00 70 1012.0
20260508195331 26 316 0.0 0.0 0.00 0.00 0.00 70 1012.0
20260508194827 26 214 1.6 3.2 0.00 0.00 0.00 71 1011.7
20260508194325 26 203 4.8 8.0 0.00 0.00 0.00 69 1012.0
20260508193822 26 178 3.2 3.2 0.00 0.00 0.00 69 1012.4
20260508193319 26 247 3.2 4.8 0.00 0.00 0.00 70 1012.4
20260508192815 26 352 1.6 3.2 0.00 0.00 0.00 71 1012.4
20260508192312 26 131 4.8 8.0 0.00 0.00 0.00 70 1012.4
20260508191809 26 229 1.6 3.2 0.00 0.00 0.00 71 1012.0
20260508191306 26 223 4.8 4.8 0.00 0.00 0.00 70 1012.4
20260508190804 26 146 9.7 12.9 0.00 0.00 0.00 70 1012.4
20260508190259 27 102 4.8 8.0 0.00 0.00 0.00 67 1012.7
20260508185756 26 160 0.0 0.0 0.00 0.00 0.00 69 1012.4
20260508185254 26 201 1.6 3.2 0.00 0.00 0.00 69 1012.4
20260508184750 26 297 3.2 3.2 0.00 0.00 0.00 71 1012.4
20260508184248 25 41 0.0 1.6 0.00 0.00 0.00 72 1012.4
20260508183745 25 250 1.6 1.6 0.00 0.00 0.00 71 1012.7
20260508183241 26 231 4.8 4.8 0.00 0.00 0.00 70 1012.7
20260508182737 25 187 1.6 3.2 0.00 0.00 0.00 72 1013.1
20260508182234 25 203 4.8 4.8 0.00 0.00 0.00 71 1013.5
20260508181729 25 162 4.8 4.8 0.00 0.00 0.00 72 1013.1
20260508181227 25 166 3.2 3.2 0.00 0.00 0.00 71 1013.5
20260508180723 25 201 4.8 4.8 0.00 0.00 0.00 69 1013.5
20260508180220 25 183 3.2 3.2 0.00 0.00 0.00 70 1013.5
20260508175717 25 236 1.6 1.6 0.00 0.00 0.00 69 1013.5
20260508175213 25 202 0.0 1.6 0.00 0.00 0.00 70 1013.5
20260508174712 24 18 1.6 1.6 0.00 0.00 0.00 72 1013.5
20260508174208 25 65 0.0 0.0 0.00 0.00 0.00 72 1013.5
20260508173704 25 61 3.2 3.2 0.00 0.00 0.00 71 1013.5
20260508173200 25 316 0.0 1.6 0.00 0.00 0.00 70 1013.8
20260508172658 25 176 3.2 3.2 0.00 0.00 0.00 71 1013.8
20260508172155 25 271 1.6 1.6 0.00 0.00 0.00 70 1013.8
20260508171651 25 272 1.6 1.6 0.00 0.00 0.00 69 1013.8
20260508171147 24 243 3.2 3.2 0.00 0.00 0.00 70 1013.5
20260508170644 24 212 3.2 3.2 0.00 0.00 0.00 72 1013.8
20260508170142 25 322 0.0 0.0 0.00 0.00 0.00 71 1013.5
20260508165639 24 33 0.0 0.0 0.00 0.00 0.00 70 1013.8
20260508165136 25 321 1.6 1.6 0.00 0.00 0.00 70 1014.1
20260508164632 24 348 4.8 4.8 0.00 0.00 0.00 70 1014.1
20260508164129 24 129 0.0 0.0 0.00 0.00 0.00 70 1013.8
20260508163627 24 49 0.0 0.0 0.00 0.00 0.00 71 1013.8
20260508163124 23 351 1.6 3.2 0.00 0.00 0.00 70 1014.1
20260508162620 23 254 1.6 1.6 0.00 0.00 0.00 71 1014.5
20260508162118 23 184 0.0 1.6 0.00 0.00 0.00 71 1014.5
20260508161614 22 256 0.0 1.6 0.00 0.00 0.00 73 1014.5
20260508161112 22 239 1.6 1.6 0.00 0.00 0.00 75 1014.5
20260508160610 22 233 1.6 1.6 0.00 0.00 0.00 73 1014.8
20260508160107 22 244 1.6 1.6 0.00 0.00 0.00 73 1014.5
20260508155604 22 189 1.6 3.2 0.00 0.00 0.00 73 1014.5
20260508155101 22 163 3.2 3.2 0.00 0.00 0.00 72 1014.5
20260508154558 22 173 0.0 0.0 0.00 0.00 0.00 73 1014.8
20260508154055 22 246 0.0 0.0 0.00 0.00 0.00 72 1014.8
20260508153552 22 162 3.2 3.2 0.00 0.00 0.00 72 1015.2
20260508153048 23 183 1.6 3.2 0.00 0.00 0.00 69 1014.8
20260508152545 22 284 1.6 1.6 0.00 0.00 0.00 71 1014.8
20260508152040 21 265 0.0 0.0 0.00 0.00 0.00 74 1014.8
20260508151537 20 270 1.6 1.6 0.00 0.00 0.00 76 1014.8
20260508151034 20 38 0.0 0.0 0.00 0.00 0.00 76 1015.2
20260508150531 20 99 1.6 1.6 0.00 0.00 0.00 75 1015.2
20260508150027 20 223 1.6 1.6 0.00 0.00 0.00 75 1015.2
20260508145524 20 237 1.6 3.2 0.00 0.00 0.00 74 1015.2
20260508145020 20 214 1.6 3.2 0.00 0.00 0.00 74 1015.2
20260508144518 20 260 0.0 0.0 0.00 0.00 0.00 75 1015.2
20260508144015 20 40 0.0 0.0 0.00 0.00 0.00 74 1015.2
20260508143513 20 33 0.0 0.0 0.00 0.00 0.00 76 1014.8
20260508143009 18 166 1.6 3.2 0.00 0.00 0.00 78 1014.8
20260508142506 18 32 0.0 0.0 0.00 0.00 0.00 79 1015.2
20260508142003 18 245 0.0 0.0 0.00 0.00 0.00 81 1015.2
20260508141459 17 185 1.6 3.2 0.00 0.00 0.00 81 1015.2
20260508140957 17 128 3.2 3.2 0.00 0.00 0.00 81 1015.2
20260508140454 17 170 3.2 4.8 0.00 0.00 0.00 81 1015.2
20260508135949 17 157 1.6 3.2 0.00 0.00 0.00 82 1015.5
20260508135446 17 250 0.0 0.0 0.00 0.00 0.00 81 1015.5
20260508134943 17 68 0.0 0.0 0.00 0.00 0.00 81 1015.2
20260508134439 17 188 0.0 1.6 0.00 0.00 0.00 82 1015.5
20260508133936 17 54 0.0 0.0 0.00 0.00 0.00 81 1015.8
20260508133434 17 280 0.0 0.0 0.00 0.00 0.00 81 1015.8
20260508132930 17 10 1.6 3.2 0.00 0.00 0.00 81 1015.8
20260508132428 17 333 1.6 1.6 0.00 0.00 0.00 81 1015.8
20260508131925 17 318 1.6 1.6 0.00 0.00 0.00 81 1015.5
20260508131420 17 351 4.8 4.8 0.00 0.00 0.00 81 1015.5
20260508130917 17 41 1.6 1.6 0.00 0.00 0.00 81 1015.5
20260508130414 17 313 0.0 0.0 0.00 0.00 0.00 81 1015.5
20260508125910 17 346 3.2 3.2 0.00 0.00 0.00 81 1015.5
20260508125406 17 3 3.2 3.2 0.00 0.00 0.00 81 1015.5
20260508124904 17 32 1.6 1.6 0.00 0.00 0.00 81 1015.2
20260508124401 17 18 4.8 4.8 0.00 0.00 0.00 81 1015.2
20260508123859 17 335 4.8 4.8 0.00 0.00 0.00 81 1015.2
20260508123357 17 8 4.8 4.8 0.00 0.00 0.00 81 1015.2
20260508122853 17 336 3.2 3.2 0.00 0.00 0.00 81 1015.5
20260508122350 17 337 4.8 4.8 0.00 0.00 0.00 81 1015.5
20260508121848 17 36 1.6 1.6 0.00 0.00 0.00 81 1015.5
20260508121346 17 345 3.2 4.8 0.00 0.00 0.00 81 1015.8
20260508120843 17 14 1.6 1.6 0.00 0.00 0.00 81 1016.2
20260508120341 17 301 1.6 1.6 0.00 0.00 0.00 81 1015.8
20260508115838 17 284 1.6 3.2 0.00 0.00 0.00 81 1016.2
20260508115336 17 307 1.6 1.6 0.00 0.00 0.00 81 1016.2
20260508114832 17 336 3.2 3.2 0.00 0.00 0.00 81 1015.8
20260508114329 17 335 4.8 4.8 0.00 0.00 0.00 81 1016.2
20260508113826 17 312 1.6 1.6 0.00 0.00 0.00 81 1016.2
20260508113324 17 330 1.6 1.6 0.00 0.00 0.00 81 1015.8
20260508112820 17 281 1.6 1.6 0.00 0.00 0.00 81 1016.2
20260508112317 17 269 0.0 0.0 0.00 0.00 0.00 81 1016.2
20260508111813 17 299 1.6 1.6 0.00 0.00 0.00 81 1016.2
20260508111311 17 290 0.0 0.0 0.00 0.00 0.00 81 1016.2
20260508110808 17 319 1.6 3.2 0.00 0.00 0.00 81 1015.5
20260508110306 17 286 3.2 3.2 0.00 0.00 0.00 81 1015.8
20260508105805 17 1 3.2 3.2 0.00 0.00 0.00 81 1015.5
20260508105305 17 288 0.0 1.6 0.00 0.00 0.00 81 1015.8
20260508104759 17 7 1.6 1.6 0.00 0.00 0.00 82 1015.8
20260508104256 16 341 3.2 3.2 0.00 0.00 0.00 81 1015.8
20260508103753 16 337 1.6 3.2 0.00 0.00 0.00 82 1015.8
20260508103250 16 295 1.6 1.6 0.00 0.00 0.00 82 1015.8
20260508102747 16 343 3.2 3.2 0.00 0.00 0.00 82 1015.5
20260508102245 16 0 4.8 8.0 0.00 0.00 0.00 83 1015.5
20260508101742 16 357 3.2 3.2 0.00 0.00 0.00 83 1015.8
20260508101240 16 358 3.2 4.8 0.00 0.00 0.00 83 1015.5
20260508100738 16 295 3.2 3.2 0.00 0.00 0.00 83 1015.5
20260508100235 16 1 3.2 3.2 0.00 0.00 0.00 83 1015.8
20260508095731 16 353 4.8 4.8 0.00 0.00 0.00 81 1015.8
20260508095229 17 298 1.6 1.6 0.00 0.00 0.00 79 1015.8
20260508094725 17 10 1.6 1.6 0.00 0.00 0.00 79 1015.8
20260508094222 17 314 1.6 1.6 0.00 0.00 0.00 79 1016.2
20260508093720 17 292 1.6 1.6 0.00 0.00 0.00 79 1016.5
20260508093218 17 333 0.0 1.6 0.00 0.00 0.00 79 1016.2
20260508092714 17 292 1.6 1.6 0.00 0.00 0.00 79 1016.2
20260508092212 17 300 1.6 1.6 0.00 0.00 0.00 79 1016.2
20260508091710 17 304 1.6 1.6 0.00 0.00 0.00 79 1015.8
20260508091207 17 321 1.6 1.6 0.00 0.00 0.00 78 1015.5
20260508090704 17 10 0.0 0.0 0.00 0.00 0.00 78 1015.5
20260508090202 17 286 1.6 1.6 0.00 0.00 0.00 78 1015.5
20260508085657 17 323 1.6 1.6 0.00 0.00 0.00 78 1015.5
20260508085155 17 359 3.2 3.2 0.00 0.00 0.00 78 1015.5
20260508084651 17 310 1.6 3.2 0.00 0.00 0.00 78 1015.8
20260508084148 17 237 0.0 0.0 0.00 0.00 0.00 77 1015.8
20260508083646 17 314 1.6 3.2 0.00 0.00 0.00 77 1015.8
20260508083143 17 333 3.2 3.2 0.00 0.00 0.00 78 1015.8
20260508082638 17 310 1.6 1.6 0.00 0.00 0.00 77 1016.2
20260508082136 17 330 1.6 1.6 0.00 0.00 0.00 77 1016.2
20260508081633 17 337 3.2 3.2 0.00 0.00 0.00 77 1015.8
20260508081129 17 345 1.6 3.2 0.00 0.00 0.00 77 1015.8
20260508080627 17 323 0.0 0.0 0.00 0.00 0.00 77 1016.2
20260508080125 17 336 1.6 3.2 0.00 0.00 0.00 77 1015.8
20260508075621 17 346 3.2 3.2 0.00 0.00 0.00 77 1015.8
20260508075118 17 300 1.6 1.6 0.00 0.00 0.00 77 1015.5
20260508074616 17 320 3.2 3.2 0.00 0.00 0.00 77 1015.8
20260508074113 17 303 1.6 3.2 0.00 0.00 0.00 77 1015.8
20260508073610 17 303 1.6 1.6 0.00 0.00 0.00 77 1015.8
20260508073108 17 300 1.6 1.6 0.00 0.00 0.00 78 1016.2
20260508072603 17 315 1.6 1.6 0.00 0.00 0.00 78 1015.5
20260508072100 17 334 1.6 3.2 0.00 0.00 0.00 78 1015.5
20260508071558 17 342 3.2 3.2 0.00 0.00 0.00 78 1015.5
20260508071056 17 344 3.2 3.2 0.00 0.00 0.00 78 1015.8
20260508070553 17 333 3.2 4.8 0.00 0.00 0.00 78 1015.8
20260508070052 17 43 0.0 0.0 0.00 0.00 0.00 77 1016.2
20260508065549 17 333 3.2 3.2 0.00 0.00 0.00 78 1016.2
20260508065047 17 333 3.2 3.2 0.00 0.00 0.00 78 1016.2
20260508064544 17 341 3.2 3.2 0.00 0.00 0.00 78 1016.2
20260508064042 17 305 3.2 3.2 0.00 0.00 0.00 78 1016.9
20260508063539 17 288 1.6 1.6 0.00 0.00 0.00 77 1016.9
20260508063037 17 326 3.2 3.2 0.00 0.00 0.00 77 1016.9
20260508062534 17 285 0.0 0.0 0.00 0.00 0.00 78 1016.9
20260508062031 17 357 0.0 0.0 0.00 0.00 0.00 78 1016.9
20260508061529 17 307 1.6 1.6 0.00 0.00 0.00 77 1016.9
20260508061025 16 271 0.0 0.0 0.00 0.00 0.00 78 1016.9
20260508060522 16 282 0.0 0.0 0.00 0.00 0.00 78 1016.9
20260508060020 16 292 0.0 1.6 0.00 0.00 0.00 78 1016.5
20260508055515 17 338 1.6 3.2 0.00 0.00 0.00 78 1016.9
20260508055012 17 282 0.0 0.0 0.00 0.00 0.00 78 1017.2
20260508054508 16 271 0.0 0.0 0.00 0.00 0.00 78 1016.9
20260508054006 16 308 1.6 1.6 0.00 0.00 0.00 78 1016.9
20260508053503 16 293 1.6 1.6 0.00 0.00 0.00 78 1016.9
20260508053001 16 332 1.6 1.6 0.00 0.00 0.00 77 1016.5
20260508052458 16 305 0.0 1.6 0.00 0.00 0.00 77 1016.5
20260508051954 16 351 3.2 3.2 0.00 0.00 0.00 77 1016.2
20260508051449 16 331 0.0 1.6 0.00 0.00 0.00 78 1016.2
20260508050946 17 348 3.2 3.2 0.00 0.00 0.00 77 1016.5
20260508050442 17 354 0.0 1.6 0.00 0.00 0.00 77 1017.2
20260508045939 17 239 1.6 1.6 0.00 0.00 0.00 78 1017.2
20260508045437 16 293 1.6 1.6 0.00 0.00 0.00 78 1016.9
20260508044934 17 313 3.2 3.2 0.00 0.00 0.00 77 1016.2
20260508044431 16 44 0.0 0.0 0.00 0.00 0.00 78 1016.2
20260508043926 16 331 1.6 3.2 0.00 0.00 0.00 78 1016.5
20260508043424 16 336 3.2 3.2 0.00 0.00 0.00 77 1016.5
20260508042920 16 331 3.2 3.2 0.00 0.00 0.00 77 1016.5
20260508042418 16 305 1.6 1.6 0.00 0.00 0.00 78 1016.5
20260508041914 16 309 0.0 0.0 0.00 0.00 0.00 78 1016.9
20260508041411 16 297 1.6 1.6 0.00 0.00 0.00 77 1016.9
20260508040908 16 309 1.6 1.6 0.00 0.00 0.00 78 1017.2
20260508040405 16 307 0.0 1.6 0.00 0.00 0.00 77 1017.2
20260508035903 16 290 1.6 1.6 0.00 0.00 0.00 78 1017.2
20260508035400 16 343 1.6 1.6 0.00 0.00 0.00 78 1017.2
20260508034856 16 285 0.0 1.6 0.00 0.00 0.00 78 1017.5
20260508034354 17 296 1.6 1.6 0.00 0.00 0.00 78 1017.5
20260508033850 16 286 1.6 1.6 0.00 0.00 0.00 78 1017.5
20260508033348 16 303 3.2 3.2 0.00 0.00 0.00 78 1017.9
20260508032846 16 272 0.0 1.6 0.00 0.00 0.00 78 1017.5
20260508032343 16 264 0.0 0.0 0.00 0.00 0.00 78 1017.5
20260508031839 16 268 0.0 0.0 0.00 0.00 0.00 78 1017.9
20260508031336 17 272 0.0 0.0 0.00 0.00 0.00 78 1017.5
20260508030833 16 267 0.0 0.0 0.00 0.00 0.00 78 1016.9
20260508030330 17 314 1.6 1.6 0.00 0.00 0.00 77 1016.5
20260508025827 17 267 0.0 0.0 0.00 0.00 0.00 78 1016.9
20260508025324 17 268 0.0 0.0 0.00 0.00 0.00 78 1017.2
20260508024821 17 272 0.0 0.0 0.00 0.00 0.00 78 1016.9
20260508024317 17 268 0.0 0.0 0.00 0.00 0.00 77 1016.5
20260508023814 17 256 0.0 0.0 0.00 0.00 0.00 76 1015.8
20260508023311 17 244 0.0 0.0 0.00 0.00 0.00 76 1015.8
20260508022807 17 336 3.2 3.2 0.00 0.00 0.00 75 1015.8
20260508022306 17 43 0.0 1.6 0.00 0.00 0.00 75 1015.8
20260508021801 17 52 1.6 1.6 0.00 0.00 0.00 75 1015.8
20260508021256 17 343 3.2 3.2 0.00 0.00 0.00 75 1015.5
20260508020752 17 350 3.2 3.2 0.00 0.00 0.00 74 1015.5
20260508020251 17 45 0.0 0.0 0.00 0.00 0.00 75 1015.2
20260508015747 17 89 1.6 1.6 0.00 0.00 0.00 74 1015.2
20260508015244 17 151 0.0 0.0 0.00 0.00 0.00 74 1015.2
20260508014741 17 303 1.6 1.6 0.00 0.00 0.00 74 1015.8
20260508014238 17 282 1.6 1.6 0.00 0.00 0.00 73 1015.5
20260508013734 17 49 0.0 0.0 0.00 0.00 0.00 73 1015.2
20260508013231 17 70 1.6 1.6 0.00 0.00 0.00 73 1015.5
20260508012728 17 7 3.2 3.2 0.00 0.00 0.00 72 1015.8
20260508012225 17 293 1.6 1.6 0.00 0.00 0.00 72 1016.2
20260508011723 17 343 3.2 3.2 0.00 0.00 0.00 72 1015.8
20260508011220 18 44 0.0 1.6 0.00 0.00 0.00 71 1015.5
20260508010716 18 353 0.0 1.6 0.00 0.00 0.00 71 1015.5
20260508010215 18 354 6.4 8.0 0.00 0.00 0.00 70 1015.8
20260508005712 18 65 1.6 3.2 0.00 0.00 0.00 71 1015.2
20260508005208 18 332 1.6 3.2 0.00 0.00 0.00 70 1016.2
20260508004704 18 83 0.0 1.6 0.00 0.00 0.00 70 1015.8
20260508004200 18 271 0.0 0.0 0.00 0.00 0.00 69 1016.2
20260508003657 18 31 0.0 0.0 0.00 0.00 0.00 68 1016.2
20260508003155 18 336 4.8 4.8 0.00 0.00 0.00 68 1016.5
20260508002651 18 80 0.0 1.6 0.00 0.00 0.00 67 1016.5
20260508002149 18 69 0.0 1.6 0.00 0.00 0.00 66 1016.5
20260508001644 18 333 1.6 1.6 0.00 0.00 0.00 67 1016.5
20260508001140 18 51 0.0 1.6 0.00 0.00 0.00 66 1016.5
20260508000636 18 328 4.8 8.0 0.00 0.00 0.00 66 1016.9
20260508000133 18 4 4.8 8.0 0.00 0.00 0.00 67 1016.9
20260507235630 18 330 6.4 8.0 0.00 0.00 0.00 65 1016.9
20260507235128 18 341 3.2 4.8 0.00 0.00 0.00 66 1016.9
20260507234624 18 353 3.2 3.2 0.00 0.00 0.00 66 1016.9